Dewpoint
50 49 49 49 49 47 42 40 37 41 39 34 32 30 27 32 28 30 29 27 26 24 25 25 29 29 29 31 33 31 33 32 30 29 34 35 33 31 33 28 24 28 26 25
49 48 49 49 49 46 41 39 38 41 37 33 30 27 27 28 28 29 28 27 27 27 26 25 25 30 29 31 33 32 33 30 28 26 28 32 32 30 30 30 33 28 25 27
48 48 49 49 48 46 41 38 38 36 37 29 27 27 26 26 28 28 29 27 27 27 26 28 26 32 30 32 31 34 36 32 29 26 27 31 31 29 29 30 29 28 30 30
48 48 49 49 45 46 41 37 34 32 26 26 24 25 24 24 25 28 29 28 27 28 25 25 26 29 30 31 33 36 34 31 30 30 30 31 30 29 29 31 28 28 27 29
48 48 49 48 44 43 39 34 33 31 29 27 23 24 24 25 26 29 26 26 28 28 26 27 26 28 30 30 31 31 31 29 30 29 28 29 29 29 28 28 28 28 28 26
48 48 49 48 43 41 38 36 34 29 28 23 21 22 24 26 28 30 30 29 28 28 29 30 30 30 30 30 31 30 30 29 28 25 24 22 22 22 24 27 29 28 25 24
49 49 49 47 43 39 36 35 33 28 22 22 22 26 28 27 28 28 30 31 27 29 35 35 34 32 31 31 30 31 28 27 26 24 21 14 17 30 29 29 30 32 31 31
50 50 49 47 43 41 37 36 32 28 21 25 26 28 28 28 29 29 29 30 32 34 34 29 26 24 25 27 29 30 30 27 25 22 19 18 19 23 30 29 25 30 32 31
51 51 50 48 43 40 36 37 34 30 25 23 26 26 26 27 27 27 29 31 33 35 31 28 22 19 19 17 22 29 28 28 25 24 20 12 13 28 32 31 24 31 32 30
50 50 50 49 45 41 37 35 35 31 26 26 26 24 25 28 28 25 28 30 33 33 30 26 27 18 22 17 17 21 25 25 24 23 21 19 22 31 31 22 18 33 33 32
49 50 50 50 48 40 37 36 35 31 27 28 30 28 28 29 29 25 28 29 30 32 27 25 24 23 21 22 21 20 18 19 20 22 21 17 26 31 27 25 32 34 33 33
48 48 49 50 49 40 36 33 36 33 31 28 31 31 30 30 30 30 31 28 29 32 28 27 26 23 27 22 12 21 17 18 14 20 19 22 30 31 32 30 32 33 33 34
48 48 48 48 49 43 37 35 36 33 29 28 29 28 30 32 32 34 30 31 32 33 34 31 28 25 25 20 21 20 21 23 21 21 18 23 23 27 32 32 34 34 34 34
47 47 48 49 50 46 41 39 37 33 28 24 20 30 30 31 32 33 33 33 34 33 33 31 28 26 27 20 20 19 16 23 22 22 22 22 23 25 26 31 34 35 35 35
47 48 49 50 50 46 40 38 36 36 29 21 21 26 27 31 32 32 32 32 33 32 30 29 27 28 27 26 25 24 23 20 15 11 14 16 18 24 28 27 32 35 36 36
49 50 50 50 49 43 39 35 34 37 35 28 21 26 28 31 31 32 32 33 32 32 30 28 28 28 27 24 19 19 25 25 25 20 21 24 25 26 28 30 29 33 36 36
49 49 50 50 48 42 38 32 34 37 35 29 27 21 27 30 31 31 31 31 31 30 29 28 27 27 30 27 20 19 17 20 21 22 22 20 22 22 29 32 32 35 36 36
49 50 50 50 46 42 40 39 39 37 33 30 29 24 22 30 28 27 30 29 29 29 28 27 26 26 28 24 24 24 22 22 20 20 21 21 22 24 26 32 35 35 36 36
49 49 49 44 41 38 35 40 38 36 32 30 27 28 28 29 27 28 29 28 27 28 25 24 26 23 22 23 22 21 20 19 20 23 25 25 24 25 25 29 34 35 36 37
49 43 38 37 36 41 38 34 31 31 31 30 25 23 25 27 26 27 27 27 24 25 22 27 24 22 24 23 22 22 22 23 24 24 24 25 25 26 26 28 32 34 36 37
41 37 35 38 40 34 30 30 28 28 26 27 26 22 23 27 27 26 26 26 25 22 21 24 23 22 23 23 21 21 25 25 25 26 26 25 25 24 28 29 30 32 35 37
40 38 38 37 33 30 27 26 25 25 25 25 25 24 27 27 28 26 26 24 23 21 25 24 20 20 23 20 20 24 23 23 24 26 27 27 27 27 28 30 32 33 34 35
40 35 32 31 30 23 23 22 25 25 27 27 27 27 27 29 29 26 25 23 22 23 22 19 22 25 23 22 22 25 23 23 24 25 27 28 29 30 31 32 33 33 33 34
37 33 29 29 27 27 27 28 32 30 29 27 28 28 28 28 27 25 23 22 22 19 17 19 24 26 24 22 24 25 24 24 24 26 27 27 27 28 29 31 31 31 31 33
35 34 30 31 30 28 29 29 28 27 29 28 28 28 27 27 25 24 22 20 19 19 21 25 27 27 26 26 28 29 30 29 28 28 29 30 30 30 30 30 30 31 32 33
34 33 32 29 30 29 28 28 31 29 29 30 30 26 25 24 25 21 21 20 19 25 27 29 25 24 24 25 27 29 30 29 29 30 28 28 29 30 30 30 30 31 32 32
32 32 35 32 31 32 31 28 28 29 28 28 27 23 23 24 21 20 22 22 29 30 28 26 26 25 24 26 26 28 29 29 29 28 28 27 27 28 28 28 30 32 31 31
Lifted_Index
13 13 13 12 11 10 9 8 7 7 7 6 5 5 5 5 5 5 5 5 5 4 4 3 2 3 3 4 3 3 3 2 2 2 2 3 3 3 4 4 4 4 4 3
13 13 13 13 12 11 10 9 8 8 7 6 6 6 5 5 5 5 5 5 5 5 4 3 3 3 4 4 4 3 3 2 2 2 2 3 3 4 4 4 4 4 3 3
14 14 13 13 13 13 12 10 9 8 7 6 6 6 6 6 6 6 6 6 5 5 5 4 4 4 4 5 4 4 3 3 2 2 3 3 3 4 5 5 5 4 3 3
15 14 14 14 14 14 13 12 11 10 9 8 7 7 7 6 7 7 6 6 6 5 5 4 4 4 4 5 4 4 4 3 3 3 4 4 4 4 5 6 5 5 4 3
15 15 15 14 14 14 14 13 13 12 11 10 9 8 7 7 7 7 7 6 6 5 5 5 5 5 5 5 4 4 4 4 4 4 5 5 5 5 6 7 7 6 5 4
15 15 15 15 15 15 15 14 14 13 12 11 10 9 9 8 8 8 7 7 7 6 6 6 6 6 5 5 5 5 5 5 5 5 5 5 5 6 7 8 8 8 6 6
15 15 16 16 16 16 15 15 15 13 12 11 11 11 10 10 9 9 9 8 8 8 7 7 7 6 6 6 6 6 6 6 6 5 5 5 6 7 8 8 8 8 8 7
15 15 15 16 16 16 16 16 15 14 12 12 12 12 12 11 11 10 10 10 9 9 8 7 6 6 6 6 6 7 7 7 7 6 5 5 7 8 9 9 8 8 8 9
15 15 15 16 16 16 16 16 16 15 13 13 13 12 12 12 12 11 11 11 11 10 9 7 6 5 6 6 6 7 7 8 7 7 5 5 7 9 9 8 7 8 9 9
15 15 15 16 16 16 17 17 17 16 14 14 13 13 13 13 12 12 12 12 11 11 10 8 6 6 6 5 5 6 6 6 6 6 5 6 8 10 9 8 8 9 10 10
15 15 15 15 16 17 17 17 17 16 15 15 15 14 14 13 13 13 13 13 12 12 10 9 7 7 7 6 6 6 5 5 5 5 5 6 9 10 9 8 9 10 11 11
16 15 15 15 16 17 17 17 18 17 16 15 16 15 15 14 14 13 13 13 13 13 12 11 9 8 8 6 6 6 7 6 6 6 6 8 9 10 10 10 10 11 11 11
16 16 15 15 15 16 17 17 17 17 16 15 15 16 16 15 15 14 14 14 14 14 13 13 11 9 9 7 6 7 8 9 7 7 7 9 10 11 11 11 11 11 11 12
17 16 15 15 15 15 16 16 17 17 15 14 14 16 16 16 16 15 15 14 14 14 14 13 11 10 10 9 8 8 9 9 7 7 8 9 10 11 11 11 11 11 11 12
16 16 15 15 15 15 16 16 16 16 15 13 13 15 16 17 17 16 15 15 14 14 13 12 12 12 11 10 8 8 9 9 8 7 8 9 10 11 12 11 11 12 12 12
15 15 15 15 15 16 16 16 16 17 16 14 12 13 15 17 17 17 16 15 15 14 13 13 13 13 12 9 7 8 10 10 10 10 10 10 10 11 12 12 12 12 12 12
15 15 15 15 15 16 16 16 16 17 17 14 12 11 14 15 16 16 16 16 15 15 14 13 13 13 11 8 7 9 11 12 12 12 11 10 10 11 12 12 12 12 12 11
14 14 14 15 15 16 16 16 16 17 16 15 12 10 11 14 14 14 16 16 15 15 14 12 12 11 10 8 8 10 11 12 11 12 11 11 10 10 11 11 11 11 11 11
14 14 14 14 15 15 16 17 17 17 17 15 13 10 10 12 13 13 14 14 14 13 13 12 11 9 8 9 10 11 12 11 11 11 11 10 10 10 10 11 11 11 11 11
13 13 13 14 15 15 16 17 17 17 17 16 14 11 10 11 12 12 13 13 11 11 11 11 9 7 8 10 12 12 12 12 11 11 10 10 9 9 10 10 11 11 12 12
12 12 13 14 15 15 16 16 16 16 16 15 13 12 12 12 12 12 12 11 10 9 9 9 7 7 10 12 12 12 12 12 12 11 11 10 10 10 11 11 12 12 12 12
11 12 13 14 14 14 13 14 14 13 13 12 11 11 12 13 13 12 11 10 9 9 9 8 7 8 11 12 12 11 11 11 11 11 11 11 11 11 11 11 12 12 12 12
10 11 11 11 11 11 11 11 11 11 10 10 10 11 12 13 14 13 11 10 9 9 8 6 7 9 11 12 12 12 12 12 11 11 11 11 11 11 11 11 11 11 11 11
9 9 9 9 9 9 9 9 9 10 10 9 10 10 12 12 12 12 11 10 9 8 7 6 7 10 11 12 12 13 13 12 12 12 11 11 11 11 11 11 11 11 11 11
9 8 7 7 8 8 9 9 9 10 10 10 10 10 11 11 11 11 10 9 8 7 7 7 9 11 11 12 12 13 12 12 12 12 12 12 12 12 12 12 12 12 12 12
8 8 7 7 7 7 8 8 9 10 10 11 10 10 10 10 10 10 9 8 7 7 8 10 11 12 12 12 12 12 12 12 12 12 13 13 13 13 13 13 14 14 14 13
8 8 8 7 7 7 7 8 9 10 10 10 10 9 9 10 10 9 8 7 7 7 9 11 13 13 12 12 12 12 12 12 12 13 13 13 14 14 14 14 14 14 14 14